Location: Saddleback Butte
(34.6776°N, 117.8050°W)
Time: 14:59:34
(UTC-07:00)

Iridium 35 - Visible Passes

Search period start: 24 June 2016 00:00
Search period end: 04 July 2016 00:00
Orbit: 776 x 779 km, 86.4° (Epoch: 24 June)

Date Brightness Start Highest point End Pass type
(mag) Time Alt. Az. Time Alt. Az. Time Alt. Az.
24 Jun 6.9 00:37:16 10° NNE 00:40:24 21° ENE 00:40:24 21° ENE visible
24 Jun 6.2 02:17:16 10° NNW 02:20:52 32° WNW 02:20:52 32° WNW visible
25 Jun 7.5 00:06:08 10° ENE 00:06:52 11° ENE 00:06:52 11° ENE visible
25 Jun 5.7 01:43:23 10° N 01:47:19 50° NNW 01:47:19 50° NNW visible
26 Jun 5.9 01:09:54 10° N 01:13:48 47° NNE 01:13:48 47° NNE visible
26 Jun 7.3 02:53:07 10° NW 02:54:15 12° WNW 02:54:15 12° WNW visible
27 Jun 6.5 00:36:48 10° NNE 00:40:16 28° ENE 00:40:16 28° ENE visible
27 Jun 6.7 02:17:49 10° NNW 02:20:44 22° WNW 02:20:44 22° WNW visible
28 Jun 7.2 00:04:24 10° NE 00:06:45 16° ENE 00:06:45 16° ENE visible
28 Jun 6.1 01:43:38 10° NNW 01:47:13 37° NW 01:47:13 37° NW visible
29 Jun 5.8 01:09:55 10° N 01:13:42 49° N 01:13:42 49° N visible
30 Jun 6.2 00:36:35 10° N 00:40:11 37° NE 00:40:11 37° NE visible
30 Jun 7.1 02:18:43 10° NW 02:20:39 15° WNW 02:20:39 15° WNW visible
01 Jul 6.8 00:03:42 10° NNE 00:06:41 22° ENE 00:06:41 22° ENE visible
01 Jul 6.6 01:44:03 10° NNW 01:47:09 27° NW 01:47:09 27° NW visible
01 Jul 7.4 23:31:54 10° NE 23:33:12 12° ENE 23:33:12 12° ENE visible
02 Jul 6.0 01:10:05 10° N 01:13:40 42° NNW 01:13:40 42° NNW visible
03 Jul 5.9 00:36:31 10° N 00:40:10 45° NNE 00:40:10 45° NNE visible
